Regional Weather Roundup
Issued by NWS Cleveland, OH

Home | Current Version | Previous Version | Text Only | Print | Product List | Glossary Off
Versions: 1 2 3 4 5 6 7 8 9 10 11 12 13 14 15 16 17 18 19 20 21 22 23 24 25 26 27 28 29 30 31 32 33 34 35 36 37 38 39 40 41 42 43 44 45 46 47 48 49 50

000
ASUS41 KCLE 060810
RWRCLE
OHIO REGIONAL WEATHER ROUNDUP
NATIONAL WEATHER SERVICE CLEVELAND, OH
300 AM EST SAT FEB 06 2016

NOTE: "FAIR" INDICATES FEW OR NO CLOUDS BELOW 12,000 FEET WITH NO
SIGNIFICANT WEATHER AND/OR OBSTRUCTIONS TO VISIBILITY.

OHZ001>008-015>018-024>027-034-035-043-044-060900-
   NORTHWEST OHIO

CITY           SKY/WX    TMP DP  RH WIND       PRES   REMARKS
DEFIANCE       CLEAR     28  22  78 VRB3      30.31R
FINDLAY        MOCLDY    27  23  85 SW6       30.29R WCI  20
TOLEDO EXPRESS CLOUDY    27  21  78 W8        30.29R WCI  19
TOLEDO EXEC    CLOUDY    27  23  85 SW6       30.31R WCI  20
LIMA           CLOUDY    26  23  88 SW6       30.30R WCI  19
$$

OHZ009>014-019>023-028>033-038-089-060900-
   NORTHEAST OHIO

CITY           SKY/WX    TMP DP  RH WIND       PRES   REMARKS
CLE-HOPKINS    CLOUDY    32  22  66 W10       30.30R WCI  24
CLE-LAKEFRONT  CLOUDY    34  23  64 SW15      30.28R WCI  24
CUY CO. ARPT   NOT AVBL
LORAIN-ELYRIA  CLOUDY    30  23  75 W12       30.29R WCI  20
ASHTABULA      CLOUDY    32  20  61 SW12      30.26R WCI  23
AKRON-CANTON   CLOUDY    32  18  56 SW12      30.27R WCI  23
WOOSTER        CLOUDY    31  20  63 SW7       30.28R WCI  24
MANSFIELD      CLOUDY    28  23  81 W8        30.27R WCI  20
YOUNGSTOWN     CLOUDY    31  19  61 S7        30.26S WCI  24
$$

OHZ042-051>053-060>062-070>072-077>081-060900-
  SOUTHWEST OHIO

CITY           SKY/WX    TMP DP  RH WIND       PRES   REMARKS
CINC-COVINGTON CLOUDY    27  24  89 CALM      30.32S
CINC-LUNKEN    PTCLDY    28  25  88 MISG      30.36R
HAMILTON       PTCLDY    26  24  92 NW3       30.35R
DAYTON         CLOUDY    24  21  88 CALM      30.32S
WRIGHT-PAT AFB CLOUDY    25  22  90 CALM      30.32S
DAYTON GENERAL CLOUDY    27  22  81 NW3       30.31R
WILMINGTON     CLOUDY    28  20  71 CALM      30.31R
$$

OHZ036-037-039>041-045>050-054>059-063>069-073>076-082>088-060900-
  CENTRAL AND SOUTHEAST OHIO

CITY           SKY/WX    TMP DP  RH WIND       PRES   REMARKS
COLUMBUS       MOCLDY    29  19  66 S5        30.31R WCI  24
OSU AIRPORT    PTCLDY    27  23  85 W6        30.31R WCI  20
BOLTON FIELD   PTCLDY    28  22  78 CALM      30.31S
RICKENBACK AFB PTCLDY    29  20  68 SW6       30.31S WCI  23
NEWARK         PTCLDY    31  18  58 S6        30.30S WCI  25
MARION         CLOUDY    28  21  75 W5        30.30R WCI  23
LANCASTER      CLOUDY    31  18  58 SW5       30.31S WCI  26
ZANESVILLE     CLOUDY    34  17  50 S7        30.31S WCI  28
NEW PHILLY     CLOUDY    33  17  51 S6        30.31R WCI  28
$$



USA.gov is the U.S. government's official web portal to all federal, state and local government web resources and services.